Location: Birnfeld
(50.2007°N, 10.4299°E)
Time: 11:08:52
(UTC+00:00)

Daily predictions for brighter satellites

Satellite Brightness Start Highest point End
(mag) Time Altitude Azimuth Time Altitude Azimuth Time Altitude Azimuth
Cosmos 1892 Rocket 3.6 19:31:49 10° NNW 19:36:09 82° W 19:40:26 10° S
Cosmos 1455 Rocket 3.0 19:32:04 10° S 19:36:28 80° E 19:40:52 10° NNE
USA 306 2.1 19:33:26 10° WSW 19:36:51 70° NNW 19:39:13 10° ENE
CZ-4B R/B 4.2 19:35:39 10° ESE 19:38:10 20° ENE 19:40:45 10° NNE
Okean O Rocket 1.9 19:34:56 10° SE 19:39:06 51° ENE 19:43:17 10° N
Meteor 1-27 4.2 19:36:44 10° S 19:42:21 80° E 19:47:57 10° NNE
Cosmos 2228 3.0 19:38:38 10° S 19:42:40 59° E 19:46:43 10° NNE
SL-24 R/B 4.5 19:38:40 10° N 19:42:57 75° WNW 19:47:37 10° SSW
NOSS 3-4 (A) 4.3 19:36:47 10° NW 19:43:02 51° NE 19:50:23 10° ESE
SL-16 R/B 2.7 19:37:50 10° NNW 19:43:23 50° NE 19:48:53 10° SE
NOSS 3-4 (C) 4.3 19:37:24 10° NW 19:43:41 51° NE 19:51:03 10° ESE
USA 186 2.1 19:41:11 10° SE 19:43:43 36° ENE 19:46:18 10° N
Okean 1 Rocket 4.5 19:44:46 10° SW 19:48:57 42° WNW 19:53:12 10° N
Cosmos 1544 Rocket 4.4 19:46:17 10° SSE 19:50:08 32° E 19:54:00 10° NNE
Cosmos 2084 Rocket 4.2 19:47:09 10° NW 19:51:10 44° SW 19:55:12 10° SSE
Cosmos 2233 Rocket 4.0 19:45:16 10° S 19:51:24 69° E 19:57:32 10° NNE
ATLAS 2AS CENTAUR R/B 4.3 19:46:18 10° W 19:52:39 38° NNW 19:58:57 10° NE
SKYMED 3 4.3 19:53:05 10° NNE 19:57:03 90° ESE 20:01:01 10° SSW
CZ-2C R/B 4.2 19:55:53 10° E 19:57:25 14° ENE 19:58:57 10° NNE
COSMOS 2406 3.5 19:53:12 10° S 19:58:38 46° ESE 20:04:07 10° NE
Cosmos 1980 Rocket 3.5 19:53:37 10° NW 19:58:46 36° WSW 20:03:53 10° S
Okean-O 2.6 19:55:31 10° SSE 19:59:53 80° ENE 20:04:17 10° NNW
Cosmos 1782 2.8 19:56:36 10° SSW 20:00:06 68° W 20:03:38 10° N
CZ-4 R/B 3.3 19:57:28 10° SSW 20:00:27 24° W 20:03:29 10° NW
Ariane Rocket 3.7 19:58:02 11° SE 20:02:33 39° ENE 20:07:15 10° N
Meteor 1-20 Rocket 4.4 19:59:02 10° N 20:04:33 59° ENE 20:09:56 11° SSE
Cosmos 1933 4.1 20:02:11 11° SSE 20:05:23 32° E 20:08:48 10° NNE
SPOT 3 Rocket 3.9 20:01:10 11° SE 20:05:58 52° ENE 20:10:57 10° N
Cosmos 1758 Rocket 3.7 20:02:04 10° N 20:06:27 64° ENE 20:10:37 11° SSE
Spot 2 Rocket 3.6 20:02:51 10° SSE 20:07:52 81° WSW 20:12:56 10° NNW
Cosmos 1725 Rocket 4.5 20:03:58 10° SSW 20:10:11 65° WNW 20:16:24 10° N
Cosmos 2333 Rocket 2.3 20:05:34 10° NNW 20:11:17 69° ENE 20:16:16 14° SE
ERS-1 Rocket 4.3 20:09:29 10° SSW 20:14:06 37° W 20:18:45 10° NNW
Tsikada Rocket 4.3 20:12:04 10° NNW 20:18:12 69° W 20:24:17 10° S
Cosmos 2360 Rocket 2.6 20:19:35 10° NNW 20:25:10 54° NE 20:29:39 16° SE
USA 245 4.3 20:19:40 12° SSE 20:25:11 80° ENE 20:30:43 10° NNW
Cosmos 1461 2.6 20:22:59 10° SSW 20:26:36 55° SE 20:30:13 10° NE
CZ-4B R/B 4.5 20:21:56 10° SSW 20:27:11 39° W 20:32:25 10° NNW
CZ-4B R/B 3.4 20:25:36 16° SSE 20:29:24 67° ENE 20:34:14 10° N
Cosmos 1602 Rocket 3.6 20:26:22 10° N 20:30:40 64° ENE 20:33:50 18° SSE
CZ-4C R/B 3.7 20:26:27 10° W 20:30:43 36° NNW 20:36:10 10° NE
Cosmos 1992 Rocket 4.1 20:26:02 10° SSW 20:31:14 79° WNW 20:36:29 10° NNE
YAOGAN 11 4.3 20:29:18 10° NNE 20:33:45 77° WNW 20:38:12 10° SSW
Cosmos 1777 Rocket 4.2 20:32:15 10° NNW 20:37:28 64° ENE 20:41:09 19° SE
ISS -3.4 20:34:14 10° W 20:37:34 66° N 20:40:55 10° E
Cosmos 2219 Rocket 2.9 20:33:07 10° NNW 20:38:33 45° NE 20:42:48 16° ESE
Meteor 1-25 Rocket 4.2 20:33:37 10° N 20:39:19 82° ENE 20:43:46 17° SSE
Cosmos 220 Rocket 3.9 20:36:01 11° S 20:39:47 55° ESE 20:43:48 10° NNE
Cosmos 1437 Rocket 2.4 20:36:40 12° S 20:39:58 85° E 20:43:35 10° NNE
USA 290 3.4 20:39:45 22° ESE 20:40:06 23° ESE 20:42:39 10° NE
SL-08 R/B 4.5 20:39:21 10° N 20:43:56 45° WNW 20:48:27 10° SW
Cosmos 1503 Rocket 4.2 20:40:50 10° NNW 20:45:59 59° ENE 20:49:23 21° SE
Cosmos 1626 Rocket 4.4 20:42:45 10° NNW 20:46:57 47° W 20:51:00 11° SSW
DEBRIS 3.6 20:43:58 10° W 20:47:18 84° S 20:58:13 10° E
Cosmos 2098 Rocket 3.2 20:44:23 17° S 20:47:52 57° E 20:51:57 10° NNE
Cosmos 1076 Rocket 4.2 20:45:18 10° N 20:49:18 38° ENE 20:51:27 22° SE
NOSS 3-3 (A) 4.2 20:44:40 10° WSW 20:49:57 65° NW 20:56:22 10° NE
Terra 4.2 20:48:42 10° SW 20:51:59 19° W 20:55:17 10° NW
Cosmos 2151 3.6 20:50:59 10° NNW 20:54:59 50° W 20:58:09 15° SSW
Cosmos 2322 Rocket 2.2 20:51:20 10° NNW 20:57:02 89° WSW 21:00:46 22° SSE
Cosmos 1486 Rocket 4.0 20:51:50 10° NNW 20:57:07 83° WSW 21:00:35 22° SSE
Cosmos 1513 Rocket 4.5 20:51:23 10° S 20:57:36 90° NW 21:03:46 10° N
IRS-1C Rocket 4.2 20:53:40 18° S 20:57:37 77° WSW 21:02:55 10° NNW
Cosmos 1464 Rocket 4.0 20:53:50 16° S 20:58:45 67° E 21:04:53 10° NNE
Cosmos 1354 Rocket 4.4 20:55:07 10° NNW 21:00:17 54° ENE 21:03:26 23° SE
Cosmos 2082 Rocket 3.7 20:56:35 10° WSW 21:01:54 39° NW 21:07:15 10° NNE
USA 306 3.2 21:01:39 10° WNW 21:03:55 25° NNW 21:04:50 17° NE
Meteor 2-10 4.2 20:59:41 10° NNW 21:05:28 87° E 21:09:14 22° SSE
Cosmos 1606 Rocket 3.5 21:03:17 24° S 21:05:47 65° E 21:10:03 10° NNE
CZ-4B R/B 3.8 21:09:42 18° SSW 21:11:43 33° W 21:14:55 10° NNW
Cosmos 1766 3.9 21:09:30 10° N 21:12:22 29° ENE 21:13:02 27° E
USA 186 4.3 21:12:25 10° WSW 21:13:17 11° W 21:14:08 10° WNW
Cosmos 1726 Rocket 3.5 21:12:35 31° SSE 21:14:15 56° E 21:18:14 10° NNE
Cosmos 2237 Rocket 4.3 21:10:32 10° N 21:14:39 20° NE 21:18:44 10° E
Cosmos 1428 Rocket 4.4 21:08:53 10° N 21:15:09 86° E 21:19:09 24° S
Okean O Rocket 3.8 21:12:27 10° SW 21:15:34 19° W 21:18:43 10° NW
Cosmos 540 Rocket 3.8 21:13:17 26° SSE 21:15:52 47° ESE 21:20:48 10° NNE
Cosmos 1092 Rocket 4.3 21:10:56 10° N 21:16:57 52° ENE 21:20:29 25° SE
Aureole 1 Rocket 4.3 21:12:57 10° NNW 21:18:31 55° ENE 21:22:39 23° SE
Cosmos 1805 3.7 21:17:53 10° NNW 21:20:59 41° W 21:22:21 26° SSW
Cosmos 2278 4.5 21:17:29 10° NW 21:22:53 44° WSW 21:26:23 21° S
COSMOS 2428 3.7 21:21:02 10° NNW 21:26:22 38° NE 21:30:13 17° ESE
SL-16 R/B 3.4 21:22:15 10° NW 21:27:16 33° WSW 21:30:55 16° SSW
CZ-2C R/B 3.3 21:27:14 26° SW 21:27:55 30° W 21:30:27 10° NNW
Okean 1-7 Rocket 4.1 21:23:44 10° NNW 21:28:07 56° W 21:30:35 25° SSW
Geosat 4.2 21:28:07 10° NE 21:33:00 50° ESE 21:35:08 30° S
NOSS 3-4 (A) 4.2 21:27:33 10° NW 21:34:08 55° SW 21:38:39 25° S
NOSS 3-4 (C) 4.2 21:28:11 10° NW 21:34:47 56° SW 21:39:17 25° S
Cosmos-2242 3.1 21:34:03 38° SSE 21:35:14 53° E 21:39:16 10° NNE
Cosmos 2034 Rocket 4.0 21:32:54 23° S 21:37:09 84° E 21:43:32 10° N
Ariane Rocket 4.2 21:38:07 16° SSW 21:41:29 34° W 21:46:05 10° NNW
USA 234 4.3 21:41:48 10° ENE 21:46:56 24° SE 21:47:11 24° SE
TSX-5 3.7 21:46:29 10° NNW 21:49:32 51° NE 21:50:06 44° E
Cosmos 2333 Rocket 3.9 21:50:39 10° NW 21:55:02 23° WSW 21:58:17 15° SW
Helios 1B rocket 2.0 21:55:11 58° SE 21:55:44 73° ENE 21:59:15 10° N
Cosmos 2279 Rocket 4.4 21:53:17 30° SSE 21:56:01 50° E 22:02:02 10° NNE
Cosmos 1763 Rocket 3.6 21:53:12 19° SSW 21:56:59 76° WNW 22:02:17 10° NNE
Okean 1 4.2 21:56:18 23° SW 21:57:58 38° WNW 22:01:22 10° N
Cosmos 1470 3.0 21:54:51 10° N 21:58:00 39° ENE 21:58:12 39° E
Cosmos 1536 2.5 21:54:50 10° N 21:58:33 88° E 21:59:12 58° SSE
Cosmos 2221 3.5 21:59:07 29° ESE 21:59:39 30° E 22:03:21 10° NNE
Cosmos 1707 2.0 21:59:51 71° NW 21:59:51 71° NW 22:02:33 10° N
Cosmos 1898 Rocket 3.8 21:54:38 10° NNW 21:59:46 59° ENE 22:02:03 32° SE
Cosmos 1634 Rocket 3.9 21:57:45 31° S 22:00:50 74° E 22:07:02 10° NNE
CSL-04 DEB 4.0 22:01:35 58° SE 22:02:10 74° ENE 22:05:48 10° NNW
Cosmos 2297 Rocket 3.7 22:01:44 19° ESE 22:02:29 20° E 22:06:25 10° NE
Cosmos 1833 4.3 21:57:58 16° SW 22:02:32 78° WNW 22:08:12 10° NNE
CZ-2C R/B 4.2 21:59:04 10° NNE 22:03:20 43° E 22:04:14 38° SE
Cosmos 1953 Rocket 4.1 21:59:11 10° NNW 22:03:23 49° W 22:04:56 33° SSW
Cosmos 44 3.5 21:59:34 10° NW 22:04:59 72° SW 22:06:56 39° SSE
Cosmos 2360 Rocket 3.4 22:03:59 10° NW 22:08:52 30° WSW 22:11:23 21° SW
Meteor 2-6 Rocket 4.4 22:08:15 35° S 22:10:50 68° E 22:16:45 10° NNE
Cosmos 2322 3.7 22:05:31 10° NNW 22:11:15 79° ENE 22:13:46 35° SE
USA 290 4.3 22:12:09 14° WSW 22:14:08 24° WNW 22:16:48 10° N
ISS -3.9 22:11:08 10° WNW 22:14:19 77° WSW 22:14:19 77° WSW
Cosmos 2026 Rocket 4.4 22:08:39 10° NNW 22:14:53 57° W 22:18:17 27° SSW
Cosmos 2058 Rocket 3.1 22:14:25 39° SSW 22:15:55 70° WNW 22:20:15 10° N
GP-B 4.3 22:14:07 10° NNE 22:17:56 29° E 22:18:52 26° ESE
SAR-Lupe-2 4.2 22:20:01 37° E 22:20:16 38° ENE 22:23:23 10° N
Helios 1A 3.3 22:17:17 10° N 22:21:08 53° WNW 22:22:30 34° SW
Cosmos 2219 Rocket 3.1 22:17:14 10° NW 22:22:24 37° WSW 22:24:29 28° SSW
Cosmos 2266 Rocket 4.3 22:18:12 10° N 22:24:07 53° ENE 22:26:50 31° SE
Cosmos 1975 2.6 22:21:24 10° N 22:25:04 67° ENE 22:25:24 62° ESE
KORONAS-FOTON 3.7 22:25:06 56° WSW 22:25:25 60° WNW 22:28:47 10° N
Cosmos 841 Rocket 3.6 22:28:15 43° SSE 22:29:39 57° ESE 22:34:47 10° NNE
RESURS DK-1 2.1 22:28:06 10° NNW 22:32:06 80° WSW 22:32:35 66° S
ARIANE 5 R/B 2.5 22:32:16 52° S 22:33:21 86° WSW 22:37:51 10° NNW
Meteor 1-19 Rocket 4.4 22:32:11 39° SSE 22:34:18 64° E 22:40:10 10° NNE
ALOS 2 2.5 22:33:58 52° SSE 22:35:00 82° ENE 22:39:26 10° NNW
Cosmos 2322 Rocket 4.1 22:36:49 10° WNW 22:40:15 17° W 22:42:34 13° SW
Cosmos 1271 Rocket 2.7 22:46:13 55° W 22:46:22 56° WNW 22:49:44 10° N
Cosmos 372 Rocket 4.5 22:41:42 10° NW 22:46:35 46° WSW 22:47:53 38° SW
SL-16 R/B 4.1 22:42:33 10° NNW 22:47:14 25° NE 22:51:54 10° E
Cosmos 1842 3.6 22:47:39 40° WNW 22:47:41 40° WNW 22:50:43 10° N
Lacrosse 4 Rocket 3.0 22:51:57 21° E 22:51:57 21° E 22:54:24 10° ENE
Spot 4 4.0 22:51:57 45° SSW 22:53:10 59° WSW 22:57:55 10° NNW
Meteor 2-9 Rocket 4.3 22:48:46 10° NNW 22:54:06 63° W 22:55:56 40° SSW
Cosmos 1766 Rocket 4.3 22:50:08 10° N 22:54:14 41° ENE 22:55:19 34° ESE
PSLV R/B 3.5 22:50:52 10° NNE 22:55:10 78° ESE 22:55:59 57° S
Cosmos 2237 Rocket 2.3 22:54:01 10° NNW 22:59:44 73° ENE 23:02:17 34° SE
CZ-2C R/B 2.9 22:58:57 34° SE 23:01:06 58° ENE 23:06:13 10° N
BREEZE-M DEB (TANK) 4.0 22:47:38 10° WSW 23:02:00 86° SSE 23:05:40 10° ENE
Cosmos 1980 3.7 22:58:12 10° NNW 23:03:53 83° ENE 23:06:13 37° SE
ARGOS Delta rocket 4.1 22:59:26 10° N 23:04:35 76° WNW 23:06:31 40° SSW
Cosmos 858 Rocket 4.4 23:00:00 10° NNW 23:05:12 81° WSW 23:06:42 47° S
Cosmos 1937 Rocket 3.7 23:03:13 10° NNW 23:08:15 55° WSW 23:09:27 44° SSW
COSMOS 2428 3.2 23:05:17 10° NW 23:10:42 46° WSW 23:12:11 37° SSW
Cosmos 2227 Rocket 3.3 23:11:04 26° SE 23:12:21 29° ESE 23:17:08 10° NE
NOSS 0 Rocket 4.1 23:07:22 10° NW 23:13:25 58° WSW 23:15:26 40° S
Meteor 2-4 Rocket 4.0 23:11:49 38° SE 23:13:30 52° E 23:18:51 10° NNE
Meteor 1-11 Rocket 3.8 23:08:18 10° NNW 23:13:55 67° W 23:15:45 42° SSW
MetOp-A 3.8 23:18:10 50° S 23:19:25 75° WSW 23:24:07 10° NNW
Meteor 1-10 Rocket 4.4 23:17:23 38° SSW 23:19:48 75° WNW 23:25:46 10° N
Cosmos 2263 Rocket 3.7 23:20:54 20° ESE 23:22:19 22° ESE 23:26:30 10° NE
Cosmos 1238 Rocket 2.8 23:25:54 63° SSE 23:26:23 72° E 23:30:44 10° NNE
Cosmos 1812 Rocket 4.1 23:25:18 39° WSW 23:26:25 49° WNW 23:30:44 10° N
USA 234 3.2 23:24:10 10° ENE 23:30:42 71° SE 23:34:29 27° SW
SeaSat 1 2.8 23:28:37 27° SE 23:31:14 62° NE 23:36:05 10° NNW
CZ-2C R/B 3.3 23:27:43 10° NNE 23:33:31 86° WNW 23:35:48 39° SSW
ACS3 Solar Sail 2.5 23:29:10 10° NNE 23:34:47 40° E 23:37:20 27° SE
Meteor 1-27 Rocket 3.7 23:32:34 40° SSW 23:34:47 84° WNW 23:40:33 10° NNE
Cosmos 2221 3.9 23:35:23 24° WSW 23:36:39 29° WNW 23:40:21 10° N
ATLAS 2AS CENTAUR R/B 4.1 23:31:53 10° NW 23:38:10 38° NNE 23:44:27 10° E
Meteor 2-20 Rocket 4.2 23:37:28 41° S 23:39:36 89° W 23:45:21 10° N
BlueWalker 3 3.1 23:41:17 27° E 23:41:17 27° E 23:43:16 10° ENE
Cosmos 2297 Rocket 2.2 23:43:29 37° SW 23:45:51 79° WNW 23:51:33 10° NNE
Cosmos 1125 Rocket 4.4 23:41:48 10° NNW 23:46:54 45° ENE 23:50:47 16° SE
Okean 3 Rocket 4.0 23:43:21 10° N 23:47:49 57° ENE 23:49:21 37° SE
Landsat 5 3.3 23:46:57 10° NNE 23:51:04 78° ESE 23:51:40 61° S
Cosmos 1340 Rocket 4.3 23:48:18 10° N 23:51:43 30° ENE 23:53:20 22° ESE
Cosmos 1842 Rocket 3.5 23:53:33 54° S 23:54:31 79° E 23:58:57 10° NNE
GP-B 4.1 23:51:02 10° NNW 23:54:58 33° W 23:56:01 29° WSW
